Location: Bremen
(53.0793°N, 8.8017°E)
Time: 21:32:13
(UTC+02:00)

Envisat - Pass Details

Date: 01 March 2024
Orbit: 762 x 764 km, 98.3° (Epoch: 13 April)

Event Time Altitude Azimuth Distance (km) Brightness Sun altitude
Rises 06:18:20 0° 4° (N) 3,245 6.3 -8.7°
Reaches altitude 10° 06:22:03 10° 337° (NNW) 2,313 5.2 -8.2°
Maximum altitude 06:24:03 12° 313° (NW) 2,146 4.9 -7.9°
Drops below altitude 10° 06:26:04 10° 290° (WNW) 2,307 4.9 -7.6°
Enters shadow 06:26:41 - 283° (WNW) 2,419 4.9 -7.5°
